• Join FlightAware (Why Join?)
  • Login
  • US Flag 
02:54AM EDT


 

Airport Tracker/Info


-or-


 

Live Flight TrackerFlight Track Log ✈ EGF3994 ✈ 27-Apr-2013 ✈ KORD - KDAY

Flight Track Log - Related Links

Times and Time Zones

All times are in EDT time to prevent confusion due to time zone crossing. See the EGF3994 flight status page for this flight to view local times or setup timezone preferences in your user account.

Time Position Orientation Groundspeed Altitude Reporting Facility
EDT Latitude Longitude Course Direction KTS MPH feet Rate Location/Type
06:41PM 41.9833 -87.8667 90° East 160 184 1,700  Level Chicago TRACON
06:42PM 41.9833 -87.8000 90° East 212 244 3,600 2,040 Climbing Chicago TRACON
06:43PM 41.9634 -87.5003 98° East  Level FlightAware Approximate
06:44PM 41.9501 -87.3682 98° East  Level FlightAware Approximate
06:44PM 41.9767 -87.5858 92° East 256 295 8,300  Level Chicago Center
06:45PM 41.9407 -87.2355 95° East  Level FlightAware Approximate
06:45PM 41.9714 -87.4825 94° East 275 316 10,400  Level Chicago Center
06:46PM 41.9333 -87.1027 90° East  Level FlightAware Approximate
06:46PM 41.9658 -87.3764 94° East 282 325 12,400  Level Chicago Center
06:47PM 41.9553 -87.2611 97° East 305 351 14,000 1,440 Climbing Chicago Center
06:48PM 41.9425 -87.1403 98° East 324 373 15,400 1,320 Climbing Chicago Center
06:49PM 41.9261 -87.0156 100° East 336 387 16,800 1,320 Climbing Chicago Center
06:50PM 41.9092 -86.8625 98° East 346 398 18,200 1,200 Climbing Chicago Center
06:51PM 41.8936 -86.7275 99° East 363 418 19,300 1,020 Climbing Chicago Center
06:52PM 41.8789 -86.6011 99° East 376 433 20,300 960 Climbing Chicago Center
06:53PM 41.8619 -86.4586 99° East 387 445 21,300 960 Climbing Chicago Center
06:54PM 41.8450 -86.3136 99° East 394 453 22,400 780 Climbing Chicago Center
06:55PM 41.8242 -86.1378 99° East 399 459 23,000 240 Climbing Chicago Center
06:56PM 41.7619 -86.0150 124° Southeast 404 465 23,000  Level Chicago Center
06:57PM 41.6817 -85.9097 136° Southeast 406 467 23,000  Level Chicago Center
06:58PM 41.6022 -85.8022 135° Southeast 408 470 23,000  Level Chicago Center
06:59PM 41.5239 -85.6933 134° Southeast 411 473 23,000  Level Chicago Center
07:00PM 41.4297 -85.5631 134° Southeast 414 476 23,000  Level Chicago Center
07:01PM 41.3503 -85.4544 134° Southeast 416 479 23,000  Level Chicago Center
07:03PM 41.2692 -85.3450 135° Southeast 418 481 23,000  Level Chicago Center
07:04PM 41.1875 -85.2328 134° Southeast 423 487 23,000 -60 Level Chicago Center
07:05PM 41.1042 -85.1222 135° Southeast 424 488 22,900 -1,320 Descending Chicago Center
07:06PM 41.0244 -85.0133 134° Southeast 419 482 20,400 -2,580 Descending Chicago Center
07:07PM 40.9489 -84.9117 135° Southeast 399 459 17,700 -2,640 Descending Chicago Center
07:08PM 40.8614 -84.7964 135° Southeast 377 434 15,000 -1,320 Descending Chicago Center
07:09PM 40.7906 -84.7031 135° Southeast 366 421 15,000 -420 Level Chicago Center
07:10PM 40.7183 -84.6067 135° Southeast 368 423 14,200 -960 Descending Chicago Center
07:11PM 40.6492 -84.5161 135° Southeast 358 412 13,100 -1,020 Descending Chicago Center
07:11PM 40.6139 -84.4703 135° Southeast 353 406 12,600 -1,020 Descending Indianapolis Center
07:12PM 40.5472 -84.3803 134° Southeast 343 395 11,500 -1,080 Descending Indianapolis Center
07:13PM 40.4531 -84.3325 159° South 342 394 10,500 -840 Descending Indianapolis Center
07:14PM 40.3647 -84.3125 170° South 316 364 9,900 -1,080 Descending Indianapolis Center
07:15PM 40.3028 -84.2986 170° South 259 298 8,600 -1,740 Descending Indianapolis Center
07:15PM 40.2847 -84.2922 165° South 277 319 8,100 -1,380 Descending Indianapolis Center
07:16PM 40.2333 -84.2783 168° South 250 288 7,200 -1,380 Descending Indianapolis Center
07:16PM 40.2167 -84.2747 171° South 255 293 6,700 -1,500 Descending Indianapolis Center
07:17PM 40.1631 -84.2633 171° South 232 267 5,600 -1,320 Descending Indianapolis Center